Flag for Canada Weather past 2 weeks in Quesnel, British Columbia, Canada

Now
70 °F

Scattered clouds.


Feels Like: 70 °F
Forecast: 44 / 65 °F
Wind: 17 mph from Southwest

Location: Quesnel Airport

Current Time: Aug 30, 2015 at 5:34:35 PM

Latest Report: Aug 30, 2015 at 5:00 PM


Visibility: 9 mi

Pressure: 29.51 "Hg

Humidity: 23%

Dew point: 30 °F

Location of QuesnelLocation

Historic Weather in Quesnel — Graph

°F

Quesnel temperature yesterday

Maximum temperature yesterday: 68 °F (at 7:00 PM)
Minimum temperature yesterday: 41 °F (at 4:57 AM)
Average temperature yesterday: 53 °F

Past Weeks' High & Low Weather Summary

 TemperatureHumidityPressure
High82 °F (Aug 18, 5:00 PM)100% (Aug 17, 3:00 AM)30.27 "Hg (Aug 17, 3:00 AM)
Low34 °F (Aug 22, 7:01 AM)18% (Aug 19, 5:00 PM)29.37 "Hg (Aug 29, 6:00 PM)
Average59 °F65%29.94 "Hg
* Reported Aug 15 4:00 PM — Aug 30 4:00 PM, Quesnel, Weather by CustomWeather, © 2015

Note: Actual official high and low records may vary slightly from our data, if they occured in-between our weather recording intervals... More about our weather records

Advertising

Quesnel weather history for previous 24 hours

 ConditionsComfort  
Time TempWeatherWind HumidityBarometerVisibility
4:00 PM
Sun, Aug 30
72 °FScattered clouds.17 mph25%29.50 "Hg9 mi
3:00 PM72 °FScattered clouds.14 mph25%29.51 "Hg9 mi
2:00 PM68 °FPartly sunny.15 mph28%29.53 "Hg9 mi
1:00 PM68 °FPartly sunny.14 mph33%29.55 "Hg9 mi
12:00 PM66 °FPassing clouds.16 mph35%29.56 "Hg9 mi
11:00 AM63 °FPartly sunny.17 mph42%29.59 "Hg9 mi
10:00 AM57 °FPassing clouds.10 mph55%29.62 "Hg9 mi
9:00 AM57 °FScattered clouds.8 mph55%29.62 "Hg9 mi
8:00 AM55 °FPartly sunny.9 mph59%29.62 "Hg9 mi
7:00 AM54 °FPassing clouds.8 mph63%29.60 "Hg9 mi
6:00 AM52 °FPassing clouds.6 mph67%29.59 "Hg9 mi
5:00 AM55 °FOvercast.8 mph59%29.57 "Hg9 mi
4:00 AM54 °FPassing clouds.7 mph67%29.56 "Hg9 mi
3:00 AM55 °FOvercast.7 mph63%29.55 "Hg9 mi
2:00 AM59 °FOvercast.9 mph51%29.54 "Hg9 mi
1:00 AM59 °FPassing clouds.16 mph51%29.52 "Hg9 mi
12:00 AM63 °FMostly cloudy.12 mph45%29.50 "Hg9 mi
11:00 PM
Sat, Aug 29
64 °FPassing clouds.18 mph43%29.48 "Hg9 mi
10:47 PM64 °FPassing clouds.21 mph43%29.48 "Hg9 mi
10:00 PM64 °FOvercast.8 mph49%29.46 "Hg9 mi
9:00 PM66 °FMostly cloudy.10 mph46%29.44 "Hg9 mi
8:00 PM66 °FPartly sunny.13 mph49%29.40 "Hg9 mi
7:00 PM68 °FPassing clouds.9 mph53%29.37 "Hg9 mi
6:00 PM66 °FMostly cloudy.13 mph56%29.37 "Hg9 mi
5:00 PM64 °FPartly sunny.8 mph73%29.39 "Hg9 mi
Weather by CustomWeather, © 2015

See weather overviewHow to use our weather pages